• en France
  • Liste des pays
  • À 7 jours
  • Température de l'eau
  • Carte satellitaire
  • Carte météo
  • Widgets météo
  • user-avatar
    Se connecter

    Météo par heure à Saidpur

    Ce jour, 21 Juillet, Samedi

    Heure Température Précipitation Vent Pression Humidité
    00:00 +34°C° 0 mm 5 m/s 746 mmHg 64%
    01:00 +34°C° 0,1 mm 5 m/s 746 mmHg 66%
    02:00 +33°C° 0,1 mm 5 m/s 746 mmHg 69%
    03:00 +33°C° 0,1 mm 5 m/s 746 mmHg 71%
    04:00 +33°C° 0 mm 5 m/s 746 mmHg 73%
    05:00 +32°C° 0 mm 5 m/s 746 mmHg 75%
    06:00 +32°C° 0 mm 5 m/s 746 mmHg 77%
    07:00 +33°C° 0 mm 6 m/s 746 mmHg 74%
    08:00 +33°C° 0 mm 6 m/s 747 mmHg 71%
    09:00 +34°C° 0 mm 6 m/s 747 mmHg 69%
    10:00 +35°C° 0,1 mm 7 m/s 747 mmHg 64%
    11:00 +36°C° 0,1 mm 7 m/s 746 mmHg 59%
    12:00 +38°C° 0,1 mm 7 m/s 746 mmHg 54%
    13:00 +39°C° 0,1 mm 7 m/s 746 mmHg 53%
    14:00 +39°C° 0,1 mm 7 m/s 745 mmHg 52%
    15:00 +39°C° 0,1 mm 7 m/s 745 mmHg 51%
    16:00 +38°C° 0,4 mm 7 m/s 745 mmHg 54%
    17:00 +38°C° 0,4 mm 7 m/s 744 mmHg 57%
    18:00 +36°C° 0,4 mm 7 m/s 744 mmHg 60%
    19:00 +35°C° 0,1 mm 7 m/s 745 mmHg 62%
    20:00 +34°C° 0,1 mm 6 m/s 745 mmHg 65%
    21:00 +34°C° 0,1 mm 6 m/s 746 mmHg 68%
    22:00 +33°C° 0 mm 6 m/s 746 mmHg 70%
    23:00 +33°C° 0 mm 6 m/s 746 mmHg 72%

    Demain, 22 Juillet, Dimanche

    Heure Température Précipitation Vent Pression Humidité
    00:00 +32°C° 0 mm 7 m/s 746 mmHg 74%
    01:00 +32°C° 0,3 mm 7 m/s 746 mmHg 76%
    02:00 +30°C° 0,3 mm 7 m/s 746 mmHg 78%
    03:00 +30°C° 0,3 mm 7 m/s 745 mmHg 80%
    04:00 +30°C° 0,2 mm 7 m/s 745 mmHg 81%
    05:00 +30°C° 0,2 mm 7 m/s 745 mmHg 82%
    06:00 +30°C° 0,2 mm 7 m/s 745 mmHg 83%
    07:00 +30°C° 0,1 mm 7 m/s 746 mmHg 81%
    08:00 +30°C° 0,1 mm 7 m/s 746 mmHg 79%
    09:00 +32°C° 0,1 mm 7 m/s 747 mmHg 77%
    10:00 +33°C° 0 mm 8 m/s 746 mmHg 73%
    11:00 +34°C° 0 mm 8 m/s 746 mmHg 69%
    12:00 +35°C° 0 mm 8 m/s 746 mmHg 65%
    13:00 +35°C° 0,1 mm 8 m/s 745 mmHg 64%
    14:00 +37°C° 0,1 mm 8 m/s 745 mmHg 62%
    15:00 +37°C° 0,1 mm 8 m/s 744 mmHg 61%
    16:00 +37°C° 0,3 mm 8 m/s 744 mmHg 62%
    17:00 +35°C° 0,3 mm 8 m/s 744 mmHg 64%
    18:00 +35°C° 0,3 mm 7 m/s 744 mmHg 65%
    19:00 +34°C° 0,2 mm 7 m/s 744 mmHg 69%
    20:00 +33°C° 0,2 mm 7 m/s 745 mmHg 72%
    21:00 +32°C° 0,2 mm 6 m/s 746 mmHg 75%
    22:00 +32°C° 0,2 mm 6 m/s 746 mmHg 77%
    23:00 +32°C° 0,2 mm 6 m/s 746 mmHg 78%

    Après-demain, 23 Juillet, Lundi

    Heure Température Précipitation Vent Pression Humidité
    00:00 +30°C° 0,2 mm 6 m/s 746 mmHg 80%
    01:00 +30°C° 0,3 mm 6 m/s 746 mmHg 81%
    02:00 +30°C° 0,3 mm 6 m/s 746 mmHg 82%
    03:00 +30°C° 0,3 mm 5 m/s 745 mmHg 83%
    04:00 +30°C° 0,5 mm 5 m/s 745 mmHg 83%
    05:00 +29°C° 0,5 mm 5 m/s 745 mmHg 83%
    06:00 +29°C° 0,5 mm 5 m/s 745 mmHg 83%
    07:00 +30°C° 0,7 mm 6 m/s 746 mmHg 81%
    08:00 +32°C° 0,7 mm 6 m/s 746 mmHg 79%
    09:00 +32°C° 0,7 mm 6 m/s 747 mmHg 77%
    10:00 +33°C° 0,6 mm 6 m/s 747 mmHg 72%
    11:00 +34°C° 0,6 mm 5 m/s 747 mmHg 67%
    12:00 +36°C° 0,6 mm 5 m/s 747 mmHg 62%
    13:00 +36°C° 1,2 mm 5 m/s 746 mmHg 62%
    14:00 +36°C° 1,2 mm 5 m/s 746 mmHg 62%
    15:00 +36°C° 1,2 mm 5 m/s 745 mmHg 62%
    16:00 +35°C° 1,3 mm 5 m/s 745 mmHg 64%
    17:00 +35°C° 1,3 mm 4 m/s 745 mmHg 67%
    18:00 +34°C° 1,3 mm 4 m/s 745 mmHg 70%
    19:00 +33°C° 0,8 mm 4 m/s 746 mmHg 73%
    20:00 +33°C° 0,8 mm 4 m/s 746 mmHg 76%
    21:00 +31°C° 0,8 mm 3 m/s 747 mmHg 80%
    22:00 +31°C° 0,4 mm 3 m/s 747 mmHg 80%
    23:00 +30°C° 0,4 mm 3 m/s 747 mmHg 81%

    24 Juillet, Mardi

    Heure Température Précipitation Vent Pression Humidité
    00:00 +30°C° 0,4 mm 3 m/s 747 mmHg 82%
    01:00 +30°C° 0,4 mm 3 m/s 747 mmHg 83%
    02:00 +30°C° 0,4 mm 3 m/s 746 mmHg 84%
    03:00 +30°C° 0,4 mm 2 m/s 746 mmHg 84%
    04:00 +30°C° 0,7 mm 2 m/s 746 mmHg 84%
    05:00 +29°C° 0,7 mm 2 m/s 746 mmHg 85%
    06:00 +29°C° 0,7 mm 2 m/s 746 mmHg 85%
    07:00 +30°C° 0,8 mm 2 m/s 747 mmHg 79%
    08:00 +32°C° 0,8 mm 2 m/s 747 mmHg 74%
    09:00 +34°C° 0,8 mm 2 m/s 747 mmHg 68%
    10:00 +35°C° 0,9 mm 3 m/s 747 mmHg 65%
    11:00 +35°C° 0,9 mm 3 m/s 747 mmHg 62%
    12:00 +36°C° 0,9 mm 3 m/s 747 mmHg 60%
    13:00 +36°C° 1,1 mm 3 m/s 746 mmHg 59%
    14:00 +37°C° 1,1 mm 3 m/s 745 mmHg 58%
    15:00 +37°C° 1,1 mm 2 m/s 745 mmHg 57%
    16:00 +37°C° 0,5 mm 2 m/s 745 mmHg 59%
    17:00 +36°C° 0,5 mm 2 m/s 745 mmHg 61%
    18:00 +36°C° 0,5 mm 2 m/s 745 mmHg 63%
    19:00 +35°C° 2,3 mm 2 m/s 745 mmHg 67%
    20:00 +34°C° 2,3 mm 3 m/s 746 mmHg 72%
    21:00 +33°C° 2,3 mm 3 m/s 747 mmHg 77%
    22:00 +33°C° 2,7 mm 3 m/s 747 mmHg 78%
    23:00 +31°C° 2,7 mm 3 m/s 747 mmHg 80%

    25 Juillet, Mercredi

    Heure Température Précipitation Vent Pression Humidité
    00:00 +31°C° 2,7 mm 2 m/s 747 mmHg 81%
    01:00 +31°C° 1 mm 2 m/s 746 mmHg 81%
    02:00 +31°C° 1 mm 2 m/s 746 mmHg 82%
    03:00 +31°C° 1 mm 2 m/s 745 mmHg 82%
    04:00 +30°C° 1 mm 2 m/s 746 mmHg 83%
    05:00 +30°C° 1 mm 2 m/s 746 mmHg 84%
    06:00 +30°C° 1 mm 2 m/s 746 mmHg 84%
    07:00 +31°C° 1,7 mm 2 m/s 746 mmHg 80%
    08:00 +32°C° 1,7 mm 2 m/s 746 mmHg 76%
    09:00 +34°C° 1,7 mm 3 m/s 747 mmHg 72%
    10:00 +34°C° 1,6 mm 3 m/s 746 mmHg 70%
    11:00 +35°C° 1,6 mm 3 m/s 746 mmHg 67%
    12:00 +35°C° 1,6 mm 3 m/s 746 mmHg 65%
    13:00 +36°C° 0,3 mm 3 m/s 746 mmHg 64%
    14:00 +36°C° 0,3 mm 3 m/s 745 mmHg 63%
    15:00 +36°C° 0,3 mm 3 m/s 745 mmHg 62%
    16:00 +36°C° 1,2 mm 3 m/s 745 mmHg 66%
    17:00 +35°C° 1,2 mm 3 m/s 745 mmHg 70%
    18:00 +34°C° 1,2 mm 2 m/s 744 mmHg 74%
    19:00 +34°C° 1,3 mm 2 m/s 745 mmHg 76%
    20:00 +32°C° 1,3 mm 2 m/s 745 mmHg 79%
    21:00 +32°C° 1,3 mm 2 m/s 746 mmHg 81%
    22:00 +31°C° 1,5 mm 2 m/s 746 mmHg 82%
    23:00 +31°C° 1,5 mm 2 m/s 746 mmHg 83%

    26 Juillet, Jeudi

    Heure Température Précipitation Vent Pression Humidité
    00:00 +31°C° 1,5 mm 2 m/s 746 mmHg 84%
    01:00 +31°C° 1,8 mm 2 m/s 745 mmHg 84%
    02:00 +30°C° 1,8 mm 2 m/s 745 mmHg 84%
    03:00 +30°C° 1,8 mm 2 m/s 745 mmHg 84%
    04:00 +30°C° 0,5 mm 2 m/s 745 mmHg 85%
    05:00 +30°C° 0,5 mm 2 m/s 745 mmHg 86%
    06:00 +30°C° 0,5 mm 2 m/s 746 mmHg 87%
    07:00 +31°C° 1,1 mm 2 m/s 746 mmHg 83%
    08:00 +31°C° 1,1 mm 2 m/s 746 mmHg 80%
    09:00 +32°C° 1,1 mm 2 m/s 746 mmHg 76%
    10:00 +34°C° 1,9 mm 2 m/s 746 mmHg 72%
    11:00 +35°C° 1,9 mm 2 m/s 746 mmHg 68%
    12:00 +36°C° 1,9 mm 2 m/s 745 mmHg 64%
    13:00 +36°C° 0,5 mm 2 m/s 745 mmHg 63%
    14:00 +37°C° 0,5 mm 3 m/s 744 mmHg 61%
    15:00 +37°C° 0,5 mm 3 m/s 744 mmHg 59%
    16:00 +37°C° 0,7 mm 3 m/s 744 mmHg 62%
    17:00 +36°C° 0,7 mm 2 m/s 744 mmHg 65%
    18:00 +36°C° 0,7 mm 2 m/s 744 mmHg 68%
    19:00 +35°C° 0,3 mm 2 m/s 744 mmHg 71%
    20:00 +34°C° 0,3 mm 2 m/s 744 mmHg 73%
    21:00 +34°C° 0,3 mm 2 m/s 745 mmHg 76%
    22:00 +32°C° 1,1 mm 2 m/s 745 mmHg 77%
    23:00 +32°C° 1,1 mm 2 m/s 745 mmHg 78%
    Voir plus